User: anonymous   Login
Location: Shanghai
(30.7041°N, 120.7947°E)
Time: 09:56:31
(UTC+08:00)
Language:

Iridium 75 - Orbit

View from above orbital plane
View from above orbital plane
View from above satellite
View from above satellite

Ground track
Ground track

The orbit data is extracted from the following two-line orbital elements,

1 25346U 98032E   18191.28036638  .20260072 -15268-5  23940-3 0  9996
2 25346  86.5326  60.0640 0048405  92.1908 268.7467 16.44512353 55608
Epoch (UTC): 10 July 2018 06:43:43
Eccentricity: 0.0048405
inclination: 86.5326°
perigee height: 122 km
apogee height: 185 km
right ascension of ascending node: 60.0640°
argument of perigee: 92.1908°
revolutions per day: 16.44512353
mean anomaly at epoch: 268.7467°
orbit number at epoch: 5560

The dashed part of the orbit path shows where the satellite is in the earth's shadow,  

DLR